Location: Bottom School (historical)
(37.9078°N, 89.3593°W)
Time: 21:37:13
(UTC+00:00)

Cosmos 1570 Rocket - Pass Details

Date: 10 July 2022
Orbit: 762 x 788 km, 74.1° (Epoch: 07 August)

Event Time Altitude Azimuth Distance (km) Brightness Sun altitude
Exits shadow 07:42:05 52° 281° (W) 949 4.3 -25.5°
Maximum altitude 07:42:20 53° 291° (WNW) 944 4.3 -25.5°
Drops below altitude 10° 07:47:28 10° 8° (N) 2,320 7.4 -25.0°
Sets 07:49:55 0° 14° (NNE) 3,255 8.5 -24.8°
